Princeton/Rocky Hill (39N)
Princeton, NJ
Field Elevation: 128
Lat: 40°23.94N  Long: 74°39.54W
CTAF/Unicom Freq: 122.7250
   
     For Weather-by-Phone, call (609)-924-3901
Weather Advisories
10/26/2014 01:48 Z
Altimeter 29.63" Hg
Wind 250° @ 3 KT
Gusts --
Visibility 10 SM
Ceiling CLR
Temperature 16° C (61° F)
Dewpoint 7° C (45° F)
Relative Humidity 54%
Density Altitude --
Condensation Altitude 4,600 feet
  Wind and Runways
Indicated Runway = 28
History
 
 
More Info
All DigiWx sites map
 
NOAA Forecast
 
Airport IQ 5010
(OCNJ) Ocean City
(PN44) Upper Gwynedd Heliport
 
about DigiWx
 
FAA Disclaimer: The data displayed is for advisory purposes only and is not to be used for flight planning or operations. For official data, please call (609)-924-3901 to hear the current automated AWOS voice message.
  METAR 39N 260148Z AUTO 25003KT 10SM CLR 16/07 A2963